TimeEST,TemperatureF,Dew PointF,Humidity,Sea Level PressureIn,VisibilityMPH,Wind Direction,Wind SpeedMPH,Gust SpeedMPH,PrecipitationIn,Events,Conditions,WindDirDegrees,DateUTC
12:53 AM,28.9,23.0,78,30.27,10.0,NNW,4.6,-,N/A,,Clear,340,2012-11-22 05:53:00
1:53 AM,28.9,23.0,78,30.28,10.0,Calm,Calm,-,N/A,,Clear,0,2012-11-22 06:53:00
2:53 AM,28.9,23.0,78,30.27,10.0,North,4.6,-,N/A,,Clear,360,2012-11-22 07:53:00
3:53 AM,28.9,24.1,82,30.27,10.0,Calm,Calm,-,N/A,,Clear,0,2012-11-22 08:53:00
4:53 AM,27.0,21.9,81,30.28,10.0,Calm,Calm,-,N/A,,Clear,0,2012-11-22 09:53:00
5:53 AM,27.0,21.9,81,30.28,10.0,NW,4.6,-,N/A,,Clear,320,2012-11-22 10:53:00
6:53 AM,28.0,23.0,81,30.29,10.0,North,3.5,-,N/A,,Clear,350,2012-11-22 11:53:00
7:53 AM,30.0,25.0,82,30.30,10.0,North,3.5,-,N/A,,Clear,360,2012-11-22 12:53:00
8:53 AM,37.0,28.9,73,30.30,10.0,North,3.5,-,N/A,,Clear,360,2012-11-22 13:53:00
9:53 AM,39.9,30.0,68,30.30,10.0,Calm,Calm,-,N/A,,Clear,0,2012-11-22 14:53:00
10:53 AM,46.0,32.0,58,30.27,10.0,Calm,Calm,-,N/A,,Clear,0,2012-11-22 15:53:00
11:53 AM,50.0,35.1,57,30.24,10.0,Calm,Calm,-,N/A,,Clear,0,2012-11-22 16:53:00
12:53 PM,52.0,35.1,53,30.22,10.0,SW,4.6,-,N/A,,Clear,220,2012-11-22 17:53:00
1:53 PM,54.0,34.0,47,30.20,10.0,SSW,3.5,-,N/A,,Clear,210,2012-11-22 18:53:00
2:53 PM,54.0,33.1,45,30.19,10.0,Calm,Calm,-,N/A,,Clear,0,2012-11-22 19:53:00
3:53 PM,53.1,32.0,45,30.19,10.0,SSE,3.5,-,N/A,,Clear,160,2012-11-22 20:53:00
4:53 PM,44.1,32.0,63,30.19,10.0,Calm,Calm,-,N/A,,Clear,0,2012-11-22 21:53:00
5:53 PM,41.0,32.0,70,30.20,10.0,Calm,Calm,-,N/A,,Clear,0,2012-11-22 22:53:00
6:53 PM,39.0,32.0,76,30.19,10.0,Calm,Calm,-,N/A,,Clear,0,2012-11-22 23:53:00
7:53 PM,35.1,30.9,85,30.19,10.0,Calm,Calm,-,N/A,,Clear,0,2012-11-23 00:53:00
8:53 PM,32.0,30.0,92,30.18,10.0,Calm,Calm,-,N/A,,Clear,0,2012-11-23 01:53:00
9:53 PM,32.0,28.0,85,30.17,9.0,Calm,Calm,-,N/A,,Clear,0,2012-11-23 02:53:00
10:53 PM,30.9,27.0,85,30.15,6.0,Calm,Calm,-,N/A,,Clear,0,2012-11-23 03:53:00
11:53 PM,30.0,26.1,85,30.14,8.0,Calm,Calm,-,N/A,,Clear,0,2012-11-23 04:53:00